Regional Weather Roundup
Issued by NWS

Home | Current Version | Previous Version | Text Only | Print | Product List | Glossary Off
Versions: 1 2 3 4 5 6 7 8 9 10 11 12 13 14 15 16 17 18 19 20 21 22 23 24 25 26 27 28

000
ASUS45 KBOI 260510
RWRID

IDAHO REGIONAL WEATHER ROUNDUP
NATIONAL WEATHER SERVICE BOISE ID
1100 PM MDT FRI MAY 25 2018

NOTE: "FAIR" INDICATES FEW OR NO CLOUDS BELOW 12000 FEET
WITH NO SIGNIFICANT WEATHER AND/OR OBSTRUCTIONS TO VISIBILITY

IDZ012-014-260600-
SOUTHWEST IDAHO


CITY           SKY/WX    TMP DP  RH WIND       PRES   REMARKS
BOISE          MOCLDY    62  51  67 NW15      29.86R
CALDWELL       MOCLDY    61  52  72 NW12      29.87R
MOUNTAIN HOME  MOCLDY    64  49  59 N17       29.84R
$$

IDZ016-017-260600-
SOUTHCENTRAL IDAHO


CITY           SKY/WX    TMP DP  RH WIND       PRES   REMARKS
BURLEY         CLOUDY    71  42  35 W14G31    29.81R
JEROME         PTCLDY    64  46  52 SW20G31   29.84R
TWIN FALLS     MOCLDY    62  46  55 SW9       29.88R
$$

IDZ019>023-260600-
SOUTHEAST IDAHO


CITY           SKY/WX    TMP DP  RH WIND       PRES   REMARKS
IDAHO FALLS    CLEAR     62  44  51 E3        29.85S
POCATELLO      CLEAR     63  35  35 S6        29.83S
REXBURG        PTCLDY    66  45  46 S5        29.86S
$$

IDZ006-010-011-018-031-032-260600-
CENTRAL IDAHO MOUNTAINS


CITY           SKY/WX    TMP DP  RH WIND       PRES   REMARKS
MCCALL         RAIN      53  49  86 N13       29.94S
HAILEY         CLEAR     61  41  48 CALM      29.86R
STANLEY          N/A     53  39  59 VRB3      29.92R
SALMON         MOCLDY    60  51  72 E3        29.81S
CHALLIS        PTCLDY    60  50  69 CALM      29.82S
$$

IDZ002-004-006-007-026-260600-
NORTHERN IDAHO


CITY           SKY/WX    TMP DP  RH WIND       PRES   REMARKS
LEWISTON       CLOUDY    72  58  61 VRB5      29.75S
LOWELL           N/A     62  62 100 CALM      29.80R
COEUR D`ALENE  PTCLDY    67  49  52 W8        29.77R
MULLAN PASS    MOCLDY    55  43  63 NW7       29.91F
$$




USA.gov is the U.S. government's official web portal to all federal, state and local government web resources and services.